Weather History for Crestview, FL

Change the Weather History Date:

Sunday, March 10, 2013

  Actual Average Record
Temperature  
Mean Temperature 63 °F -  
Max Temperature 71 °F - - ()
Min Temperature 55 °F - - ()
Degree Days  
Heating Degree Days 2    
Growing Degree Days 13 (Base 50)    
Moisture  
Dew Point 53 °F    
Average Humidity 69    
Maximum Humidity 100    
Minimum Humidity 45    
Precipitation  
Precipitation 0.00 in - - ()
Sea Level Pressure  
Sea Level Pressure 30.08 in    
Wind  
Wind Speed 12 mph (SE)    
Max Wind Speed 22 mph    
Max Gust Speed 32 mph    
Visibility 10 miles    
Events      
T = Trace of Precipitation, MM = Missing Value Source: NWS Daily Summary

Daily Weather History Graph

Daily Weather History Graph

Search for Another Location

Airport:

Trip Planner

Search our weather history database for the weather conditions in past years. The results will help you decide how hot, cold, wet, or windy it might be!

Date:

Astronomy

Mar. 10, 2013 Rise Set
Actual Time 7:01 AM CDT 6:51 PM CDT
Civil Twilight 6:37 AM CDT 7:15 PM CDT
Nautical Twilight 6:09 AM CDT 7:43 PM CDT
Astronomical Twilight 5:41 AM CDT 8:11 PM CDT
Moon 5:58 AM CDT (3/10) 5:59 PM CDT (3/10)
Length of Visible Light 12h 37m
Length of Day
11h 49m
Waning Crescent, 2% of the Moon is Illuminated
Mar 10
Waning Crescent
Mar 11
New
Mar 19
First Quarter
Mar 27
Full
Apr 2
Last Quarter

Hourly Weather History & Observations

Time (CDT) Temp. Dew Point Humidity Pressure Visibility Wind Dir Wind Speed Gust Speed Precip Events Conditions
12:58 AM 57.6 °F 42.1 °F 56% 30.10 in 10.0 mi SE 6.9 mph - N/A   Scattered Clouds
1:58 AM 57.2 °F 39.2 °F 51% 30.09 in 10.0 mi SE 9.2 mph - N/A   Scattered Clouds
3:58 AM 58.5 °F 38.5 °F 47% 30.06 in 10.0 mi ESE 10.4 mph - N/A   Overcast
4:58 AM 57.9 °F 36.7 °F 45% 30.09 in 10.0 mi ESE 10.4 mph 18.4 mph N/A   Overcast
5:58 AM 55.4 °F 46.4 °F 72% 30.08 in 10.0 mi East 9.2 mph - N/A   Scattered Clouds
6:58 AM 55.4 °F 48.2 °F 77% 30.10 in 10.0 mi ESE 6.9 mph - N/A   Mostly Cloudy
7:58 AM 57.2 °F 51.8 °F 82% 30.09 in 10.0 mi ESE 11.5 mph 18.4 mph N/A   Clear
8:58 AM 60.8 °F 51.8 °F 72% 30.10 in 10.0 mi SE 11.5 mph 18.4 mph N/A   Partly Cloudy
9:58 AM 65.3 °F 53.4 °F 65% 30.10 in 10.0 mi SE 12.7 mph 20.7 mph N/A   Partly Cloudy
10:58 AM 68.0 °F 53.6 °F 60% 30.13 in 10.0 mi SSE 20.7 mph 32.2 mph N/A   Clear
11:58 AM 68.9 °F 55.0 °F 61% 30.15 in 10.0 mi SSE 17.3 mph 28.8 mph N/A   Scattered Clouds
12:03 PM 68.0 °F 55.4 °F 64% 30.13 in 10.0 mi South 21.9 mph 28.8 mph N/A   Mostly Cloudy
12:58 PM 67.1 °F 55.2 °F 66% 30.13 in 10.0 mi South 19.6 mph 28.8 mph N/A   Overcast
1:43 PM 68.0 °F 55.4 °F 64% 30.10 in 10.0 mi SSE 17.3 mph 24.2 mph N/A   Scattered Clouds
1:53 PM 68.0 °F 55.4 °F 64% 30.09 in 10.0 mi SSE 17.3 mph 23.0 mph N/A   Mostly Cloudy
1:58 PM 68.5 °F 55.8 °F 64% 30.10 in 10.0 mi SSE 19.6 mph 26.5 mph N/A   Mostly Cloudy
2:03 PM 68.0 °F 55.4 °F 64% 30.09 in 10.0 mi SSE 19.6 mph 28.8 mph N/A   Mostly Cloudy
2:08 PM 69.8 °F 55.4 °F 60% 30.09 in 10.0 mi SE 17.3 mph 28.8 mph N/A   Mostly Cloudy
2:18 PM 69.8 °F 55.4 °F 60% 30.09 in 10.0 mi SSE 18.4 mph 26.5 mph N/A   Scattered Clouds
2:58 PM 70.3 °F 55.8 °F 60% 30.09 in 10.0 mi SSE 15.0 mph 21.9 mph N/A   Scattered Clouds
3:58 PM 71.1 °F 56.1 °F 59% 30.08 in 10.0 mi SSE 16.1 mph 21.9 mph N/A   Clear
4:58 PM 70.7 °F 55.8 °F 59% 30.07 in 10.0 mi SSE 16.1 mph - N/A   Partly Cloudy
5:58 PM 68.0 °F 57.2 °F 68% 30.05 in 10.0 mi SE 15.0 mph 20.7 mph N/A   Partly Cloudy
6:58 PM 63.1 °F 55.9 °F 77% 30.06 in 10.0 mi SE 10.4 mph 18.4 mph N/A   Clear
7:58 PM 60.8 °F 55.4 °F 82% 30.05 in 10.0 mi SE 9.2 mph - N/A   Clear
8:58 PM 60.8 °F 55.4 °F 82% 30.05 in 10.0 mi SE 8.1 mph - N/A   Clear
9:58 PM 59.9 °F 54.9 °F 83% 30.04 in 10.0 mi SE 6.9 mph - N/A   Clear
10:58 PM 59.0 °F 55.0 °F 87% 30.04 in 10.0 mi SE 6.9 mph - N/A   Clear
11:58 PM 57.9 °F 55.2 °F 91% 30.01 in 10.0 mi SE 4.6 mph - N/A   Clear
12:43 AM 55.4 °F 55.4 °F 100% 29.99 in 10.0 mi ESE 3.5 mph - N/A   Mostly Cloudy
12:58 AM 57.0 °F 56.7 °F 99% 30.00 in 10.0 mi SE 3.5 mph - N/A   Overcast